703  
ASPQ40 PGUM 222212  
RWRPQ  
WEATHER ROUNDUP FOR THE MARIANAS AND MICRONESIA  
NATIONAL WEATHER SERVICE TIYAN GU  
800 AM CHST SAT SEP 23 2017  
 
GUZ001>004-222300-  
MARIANA ISLANDS-  
 
CITY SKY/WX TMP DP RH WIND PRES REMARKS
 
GUAM AIRPORT MOSUNNY 84 81 89 E13 29.90R HX 98  
ANDERSEN AFB PTSUNNY 82 79 89 E12 29.91R HX 93  
ROTA AIRPORT PTSUNNY 81 77 89 E14 29.90R  
TINIAN AP MOSUNNY 84 79 84 E12 29.87R HX 96  
SAIPAN AP PTSUNNY 86 81 84 E13 29.88R HX 102  
 

 
 
PMZ161-222300-  
REPUBLIC OF PALAU-  
 
CITY SKY/WX TMP DP RH WIND PRES REMARKS
 
KOROR AP PTSUNNY 79 75 89 CALM 29.84R  
KOROR WSO PTSUNNY 82 77 83 CALM 29.85R HX 91  
 

 
 
PMZ171>174-222300-  
FEDERATED STATES OF MICRONESIA-  
 
CITY SKY/WX TMP DP RH WIND PRES REMARKS
 
YAP AIRPORT LGT RAIN 82 79 89 N9 29.82R HX 93  
CHUUK AP CLOUDY 82 81 94 SE9 29.85R HX 95  
POHNPEI AP NOT AVBL  
POHNPEI WSO CLOUDY 84 79 84 S5 29.92S HX 96  
KOSRAE AP PTSUNNY 88 75 66 NE8 29.87R HX 97  
 

 
 
PMZ181-222300-  
REPUBLIC OF THE MARSHALL ISLANDS-  
 
CITY SKY/WX TMP DP RH WIND PRES REMARKS
 
KWAJALEIN AP SUNNY 86 75 70 NE10 29.92S HX 95  
MAJURO AP PTSUNNY 84 79 84 NE9 29.91S HX 96  
MAJURO WSO CLOUDY 88 77 70 E8 29.89S HX 100  
 

 
 
 
 
CLICK HERE TO GO TO PREVIOUS BULLETINS.

The Nexlab GU Page Main Text Page